TimeCDT,TemperatureF,Dew PointF,Humidity,Sea Level PressureIn,VisibilityMPH,Wind Direction,Wind SpeedMPH,Gust SpeedMPH,PrecipitationIn,Events,Conditions,WindDirDegrees,DateUTC
12:53 AM,57.9,39.9,51,29.91,10.0,South,9.2,-,N/A,,Overcast,190,2014-04-01 05:53:00
1:53 AM,55.0,39.9,57,29.91,10.0,South,9.2,-,N/A,,Mostly Cloudy,190,2014-04-01 06:53:00
2:53 AM,57.0,39.9,53,29.89,10.0,SSW,12.7,-,N/A,,Clear,200,2014-04-01 07:53:00
3:53 AM,57.9,42.1,56,29.89,10.0,SW,15.0,-,N/A,,Clear,230,2014-04-01 08:53:00
4:53 AM,53.1,43.0,69,29.89,10.0,SSW,11.5,-,N/A,,Clear,200,2014-04-01 09:53:00
5:53 AM,52.0,44.1,74,29.90,10.0,SSW,13.8,-,N/A,,Clear,200,2014-04-01 10:53:00
6:53 AM,54.0,45.0,72,29.94,8.0,SW,12.7,-,N/A,,Clear,230,2014-04-01 11:53:00
7:53 AM,57.0,46.0,67,29.96,8.0,WSW,13.8,-,N/A,,Clear,240,2014-04-01 12:53:00
8:53 AM,55.9,41.0,57,29.99,9.0,WNW,18.4,27.6,N/A,,Clear,290,2014-04-01 13:53:00
9:53 AM,57.0,34.0,42,30.02,10.0,West,15.0,-,N/A,,Clear,280,2014-04-01 14:53:00
10:53 AM,59.0,33.1,38,30.04,10.0,WSW,19.6,26.5,N/A,,Clear,250,2014-04-01 15:53:00
11:53 AM,61.0,34.0,36,30.04,10.0,West,13.8,-,N/A,,Clear,280,2014-04-01 16:53:00
12:53 PM,63.0,33.1,33,30.05,10.0,West,13.8,-,N/A,,Clear,270,2014-04-01 17:53:00
1:53 PM,64.9,32.0,29,30.04,10.0,West,13.8,20.7,N/A,,Clear,280,2014-04-01 18:53:00
2:53 PM,66.0,33.1,29,30.04,9.0,WNW,13.8,20.7,N/A,,Clear,290,2014-04-01 19:53:00
3:53 PM,66.0,30.9,27,30.02,10.0,WNW,13.8,-,N/A,,Clear,300,2014-04-01 20:53:00
4:53 PM,64.9,30.9,28,30.03,10.0,NW,10.4,-,N/A,,Clear,310,2014-04-01 21:53:00
5:53 PM,63.0,32.0,31,30.05,10.0,WNW,9.2,-,N/A,,Mostly Cloudy,290,2014-04-01 22:53:00
6:53 PM,60.1,37.9,44,30.07,9.0,West,6.9,-,0.00,Rain,Light Rain,260,2014-04-01 23:53:00
7:53 PM,55.0,43.0,64,30.10,8.0,NW,11.5,-,0.03,Rain,Light Rain,310,2014-04-02 00:53:00
8:53 PM,53.1,44.1,71,30.08,9.0,North,3.5,-,0.01,Rain,Light Rain,350,2014-04-02 01:53:00
9:53 PM,51.1,44.1,77,30.08,4.0,Calm,Calm,-,0.06,Rain,Light Rain,0,2014-04-02 02:53:00
10:53 PM,51.1,45.0,80,30.03,8.0,NNE,9.2,-,0.02,,Overcast,20,2014-04-02 03:53:00
11:53 PM,51.1,45.0,80,30.05,8.0,NE,6.9,-,0.00,,Overcast,50,2014-04-02 04:53:00